x

Tanner Bank - 121nm West Of San Diego, Ca (46047) Wave Buoy

3:50pm - Mon 23rd Oct 2017 All times are PDT. -7 hours from GMT.

  • Sig Wave height 8.5ft
  • Swell Direction
  • Peak Period 13s
  • Average Period 9s
  • Wind
    7mph, 7mph gusts
  • Sea Temp 66°f
  • Air Temp 68°f
  • Sea Pressure 1016.3mb
  • Tanner Bank - 121nm West Of San Diego, Ca
  • Tanner Bank - 121nm West Of San Diego, Ca

More Historic Weather Station data

Upgrade to MSW Pro to gain access to the past 30 days of data for over 8000 Wavebouys and Weather Stations around the globe.

Join

Comparision Forecast

View Surf forecast
   
Mon 10/23 3:50pm 8.5ft 13s 9s 7 7 mph 1016.3mb 66f 68f
2:50pm 8ft 13s 9s 4 7 mph 1016.4mb 66f 68f
1:50pm 9ft 12s 9s 4 7 mph 1016.8mb 65f 67f
12:50pm 9ft 12s 9s 4 7 mph 1017.6mb 65f 66f
11:50am 9ft 12s 9s 7 7 mph 1018.1mb 65f 66f
10:50am 9ft 13s 10s 4 4 mph 1018.2mb 65f 65f
9:50am 9.5ft 12s 10s 2 4 mph 1018.2mb 64f 65f
8:50am 8.5ft 12s 9s 4 4 mph 1018mb 64f 65f
7:50am 8ft 12s 9s 4 7 mph 1017.4mb 64f 64f
6:50am 7.5ft 16s 9s 4 7 mph 1017.2mb 64f 64f
4:50am 7.5ft 12s 9s 7 7 mph 1016.9mb 64f 64f
3:50am 8.5ft 13s 9s 7 9 mph 1017.1mb 64f 64f
2:50am 9ft 13s 9s 7 9 mph 1017.5mb 64f 64f
1:50am 8ft 13s 9s 9 11 mph 1017.6mb 64f 64f
12:50am 10ft 13s 9s 9 11 mph 1017.8mb 64f 64f
Sun 10/22 11:50pm 9ft 13s 9s 11 13 mph 1017.9mb 64f 64f
10:50pm 8.5ft 12s 9s 9 13 mph 1018.2mb 64f 64f
9:50pm 9ft 13s 9s 9 13 mph 1018.3mb 64f 64f
8:50pm 8ft 12s 8s 11 13 mph 1018.3mb 64f 65f
7:50pm 8.5ft 12s 9s 9 11 mph 1018.5mb 64f 65f
6:50pm 8ft 12s 9s 11 13 mph 1018.1mb 64f 65f
5:50pm 7.5ft 14s 9s 11 13 mph 1018.3mb 64f 65f
4:50pm 7.5ft 13s 9s 9 13 mph 1018.4mb 64f 65f
3:50pm 9ft 14s 9s 11 13 mph 1018.9mb 64f 65f
2:50pm 8.5ft 14s 8s 9 11 mph 1018.7mb 65f 65f
1:50pm 9.5ft 12s 9s 7 9 mph 1018.9mb 65f 65f
12:50pm 10ft 14s 9s 7 9 mph 1019.6mb 65f 65f
11:50am 10ft 14s 9s 7 9 mph 1020.1mb 64f 64f
10:50am 10ft 14s 9s 7 11 mph 1020mb 64f 64f
9:50am 10ft 14s 9s 9 11 mph 1020mb 64f 64f
8:50am 9ft 13s 9s 7 11 mph 1019.7mb 64f 64f
7:50am 9ft 14s 10s 9 11 mph 1019.1mb 64f 64f
6:50am 8.5ft 15s 9s 9 11 mph 1018.8mb 64f 64f
5:50am 11ft 15s 10s 7 11 mph 1018.7mb 64f 64f
4:50am 10ft 13s 9s 7 11 mph 1018.2mb 64f 64f
3:50am 10ft 15s 9s 11 13 mph 1018.1mb 64f 64f
2:50am 10.5ft 14s 8s 11 13 mph 1018.5mb 64f 64f
1:50am 12ft 15s 9s 13 16 mph 1018.7mb 64f 64f
12:50am 13ft 15s 9s 16 16 mph 1018.7mb 64f 64f
Sat 10/21 11:50pm 12ft 15s 8s 16 18 mph 1019.1mb 64f 64f
10:50pm 14.5ft 15s 9s 16 20 mph 1019.1mb 64f 64f
9:50pm 13ft 14s 8s 18 22 mph 1018.7mb 64f 64f
8:50pm 13ft 13s 8s 20 25 mph 1018.2mb 64f 64f
7:50pm 13ft 15s 9s 20 25 mph 1018mb 64f 64f
6:50pm 12ft 16s 8s 18 22 mph 1017.9mb 64f 64f
5:50pm 12ft 16s 9s 18 22 mph 1017.6mb 64f 63f
4:50pm 12.5ft 16s 9s 16 20 mph 1017.4mb 64f 63f
3:50pm 14ft 15s 9s 16 20 mph 1017.2mb 64f 63f
2:50pm 15.5ft 15s 10s 16 20 mph 1017.2mb 64f 62f
1:50pm 15ft 15s 9s 16 18 mph 1017.5mb 64f 62f
12:50pm 16.5ft 16s 10s 16 20 mph 1018.1mb 64f 62f
11:50am 15.5ft 16s 9s 18 22 mph 1018.2mb 63f 62f
10:50am 14ft 15s 8s 20 27 mph 1018mb 64f 62f
9:50am 16.5ft 16s 9s 22 27 mph 1017.6mb 64f 62f
8:50am 15.5ft 17s 9s 25 29 mph 1017.2mb 64f 62f
7:50am 16.5ft 16s 9s 25 29 mph 1016.6mb 64f 62f
6:50am 16.5ft 16s 9s 27 31 mph 1016mb 64f 62f
5:50am 16.5ft 17s 9s 29 36 mph 1015.3mb 64f 62f
4:50am 17.5ft 17s 9s 27 31 mph 1015.5mb 64f 62f
3:50am 16.5ft 17s 9s 29 36 mph 1015.1mb 63f 62f
2:50am 18ft 17s 9s 27 31 mph 1015.5mb 63f 62f
1:50am 18.5ft 17s 9s 25 29 mph 1016.1mb 63f 62f
12:50am 16.5ft 17s 9s 25 27 mph 1016.3mb 63f 62f
Fri 10/20 11:50pm 18ft 17s 9s 25 29 mph 1016.2mb 64f 62f
10:50pm 19.5ft 17s 9s 25 31 mph 1016.2mb 64f 62f
9:50pm 18.5ft 17s 9s 27 34 mph 1015.6mb 64f 62f
8:50pm 17ft 17s 8s 27 34 mph 1014.9mb 64f 63f
7:50pm 17.5ft 16s 9s 29 36 mph 1014.6mb 64f 63f
6:50pm 17.5ft 16s 9s 31 38 mph 1014.3mb 64f 63f
5:50pm 16ft 19s 9s 29 38 mph 1014mb 64f 63f
4:50pm 14ft 17s 9s 22 29 mph 1014.7mb 64f 63f
3:50pm 12.5ft 17s 8s 22 27 mph 1014.9mb 64f 63f
2:50pm 13.5ft 19s 9s 22 25 mph 1015.3mb 64f 63f
1:50pm 11ft 19s 9s 20 27 mph 1015.5mb 64f 63f
12:50pm 8ft 19s 7s 20 22 mph 1016mb 64f 63f
11:50am 7.5ft 19s 7s 18 22 mph 1016.3mb 64f 64f
10:50am 6.5ft 21s 6s 16 18 mph 1016.5mb 64f 65f
9:50am 6ft 19s 6s 16 18 mph 1016.5mb 64f 64f
8:50am 5.5ft 11s 6s 13 18 mph 1016.2mb 64f 64f
7:50am 6ft 10s 6s 16 18 mph 1015.9mb 64f 65f
6:50am 6ft 10s 6s 18 20 mph 1015.8mb 65f 65f
5:50am 6ft 10s 6s 16 18 mph 1015.3mb 65f 64f
4:50am 6ft 14s 6s 16 20 mph 1015mb 65f 64f
3:50am 5.5ft 14s 6s 18 20 mph 1014.5mb 65f 64f
2:50am 6ft 14s 6s 18 20 mph 1014.6mb 65f 63f
1:50am 6ft 14s 6s 13 18 mph 1014.5mb 64f 64f
12:50am 6.5ft 7s 6s 18 20 mph 1014.6mb 64f 64f